Location: Arthez
(43.0833°N, 0.2500°W)
Time: 08:11:49
(UTC+00:00)

H-2A R/B - Pass Details

Date: 23 October 2021
Orbit: 732 x 837 km, 98.2° (Epoch: 02 December)

Event Time Altitude Azimuth Distance (km) Brightness Sun altitude
Rises 18:04:39 0° 167° (SSE) 3,332 5.2 -11.5°
Reaches altitude 10° 18:06:58 10° 168° (SSE) 2,415 4.5 -11.9°
Maximum altitude 18:12:21 83° 256° (WSW) 844 2.3 -12.9°
Drops below altitude 10° 18:17:51 10° 346° (NNW) 2,460 4.8 -13.9°
Sets 18:20:14 0° 347° (NNW) 3,399 5.5 -14.3°
